Theta_e
271 273 273 271 270 271 270 270 269 269 268 269 271 270 270 272 272 274 276 276 271 273 276 276 275 275 276 277 278 277 278 279 280 282 282 281 282 282 283 283 283 283 282 282
269 274 272 270 271 271 270 270 270 271 269 274 272 266 271 270 270 271 272 274 274 270 273 275 276 276 274 273 275 279 276 276 277 279 279 279 280 280 281 280 280 281 281 281
265 272 272 267 269 270 269 270 270 266 270 273 270 270 270 270 270 270 270 271 273 274 274 275 277 278 276 275 277 278 278 278 278 279 278 277 278 279 278 279 279 279 279 280
265 269 262 271 274 273 269 270 270 271 271 271 272 271 271 273 271 270 271 272 273 276 277 277 277 277 277 278 278 278 277 277 278 278 277 277 277 277 277 278 278 278 278 278
265 264 269 271 272 271 269 267 271 270 270 270 273 275 273 275 273 273 272 273 274 275 277 277 277 277 277 277 277 277 276 276 277 277 276 276 276 276 276 277 277 277 278 277
265 261 259 268 272 276 272 263 271 270 269 268 272 268 271 274 274 273 274 274 274 275 275 275 276 278 277 276 276 275 276 276 276 276 276 276 276 275 276 276 276 277 277 277
265 262 263 270 272 275 264 264 271 269 267 269 268 271 272 272 272 273 273 273 274 274 274 274 276 276 275 275 274 275 275 275 275 275 275 275 275 275 275 275 276 275 275 276
267 260 259 272 272 268 269 270 269 267 268 268 268 268 269 270 270 271 271 272 273 273 273 275 276 276 274 273 274 274 274 273 273 273 275 274 274 274 274 274 274 273 273 273
270 269 272 271 269 271 271 269 270 271 272 272 270 269 270 271 271 272 273 272 272 272 272 272 274 275 272 272 272 272 272 271 271 272 273 273 273 272 272 273 273 272 273 273
271 271 270 270 272 271 271 272 272 272 271 271 270 269 269 270 270 270 271 271 271 270 270 270 271 272 272 272 271 272 271 270 270 270 271 271 272 272 272 271 271 272 273 272
271 271 272 272 271 271 272 272 271 271 270 269 269 268 268 269 269 269 270 270 270 269 270 270 270 270 270 270 270 270 270 270 270 271 271 270 271 271 271 271 272 272 272 273
267 271 270 271 271 271 270 270 270 269 269 269 268 267 268 268 268 267 267 267 267 266 266 267 267 266 267 268 269 270 269 270 270 270 269 270 269 269 274 274 276 276 276 273
269 270 270 272 272 270 269 269 270 269 268 266 266 265 265 265 266 265 264 263 263 263 263 262 262 263 263 265 265 266 268 269 269 269 268 268 268 268 268 270 274 276 277 279
269 269 269 269 268 267 266 266 264 262 261 263 261 259 259 259 260 260 261 259 259 257 257 256 256 259 260 259 263 265 266 267 267 267 267 266 266 266 266 266 265 266 270 273
267 266 268 267 266 265 264 263 262 263 262 259 256 255 254 256 257 258 256 254 256 252 254 255 255 259 257 255 258 259 262 263 262 264 264 264 265 265 264 264 264 264 264 267
265 262 262 263 262 260 258 258 259 261 258 256 255 255 255 254 254 255 253 248 253 256 256 254 256 258 255 255 257 257 259 261 262 262 261 262 263 263 263 263 263 263 263 263
261 261 257 257 258 257 258 256 256 255 254 254 255 252 251 252 254 251 253 249 248 251 253 254 257 258 251 252 256 260 259 261 261 259 260 261 261 261 262 262 262 262 263 264
257 256 255 257 258 255 254 252 251 250 251 252 249 246 249 249 253 255 255 251 252 254 254 256 253 250 251 249 250 253 254 255 256 259 260 260 261 261 261 261 261 261 261 261
251 255 254 255 252 252 253 252 252 251 250 249 246 251 248 250 251 251 250 249 251 251 257 250 257 252 250 251 253 251 251 251 250 250 251 252 252 254 256 257 257 257 257 257
249 246 247 248 246 247 252 251 248 249 250 246 244 248 252 254 250 250 246 249 252 256 254 253 249 248 250 250 257 253 253 253 252 252 250 250 251 253 253 253 254 255 254 255
250 248 248 248 250 247 249 249 247 251 250 245 246 251 252 254 251 248 246 252 257 252 253 252 248 252 251 251 250 249 249 251 251 253 253 253 253 253 253 253 254 255 255 255
247 249 250 247 247 251 250 246 244 247 250 249 249 249 249 252 252 250 251 254 258 255 250 251 252 253 254 256 254 254 253 252 252 251 251 251 252 254 254 254 254 255 255 255
247 247 247 247 250 252 248 250 248 247 250 251 252 252 250 254 255 254 257 256 254 254 253 255 257 259 260 259 257 256 255 255 254 254 254 254 254 254 255 255 254 255 254 254
247 247 248 246 242 246 256 253 248 250 250 251 250 251 252 255 257 258 257 257 257 257 257 258 259 263 263 261 260 259 259 258 258 257 257 257 256 256 256 256 255 255 255 255
249 249 246 246 249 254 250 250 249 251 250 251 252 255 258 258 256 258 260 259 260 260 259 260 263 263 261 261 261 261 261 260 260 259 259 258 258 258 258 258 258 258 258 258
251 252 250 249 253 252 251 247 250 253 253 256 258 260 260 261 261 261 260 261 260 260 260 260 261 261 260 260 260 260 260 260 261 261 261 260 260 259 259 259 259 260 260 260
247 249 248 251 249 247 245 247 247 254 255 256 256 258 259 259 259 259 259 260 260 260 260 260 260 260 260 260 260 260 260 260 260 260 260 260 261 261 260 260 261 261 261 261
Wind_Speed
11 17 4 12 14 17 9 4 4 3 4 7 10 9 10 8 10 11 13 12 6 6 6 5 6 6 3 6 5 4 6 6 7 8 10 10 10 9 11 11 10 10 11 9
5 7 11 10 17 15 11 10 7 5 3 9 8 4 11 12 12 13 13 13 12 6 5 5 4 5 5 5 6 7 8 8 7 8 9 9 10 10 10 9 9 9 8 8
5 1 5 6 9 11 9 11 4 8 6 11 6 4 8 13 12 12 13 12 12 7 3 1 3 4 5 5 5 9 9 8 8 9 9 8 8 8 8 8 8 8 7 7
5 4 5 2 2 3 11 8 8 3 8 9 9 1 4 7 9 10 12 12 11 8 2 1 3 5 4 4 6 6 8 7 6 7 8 7 7 7 6 5 6 6 6 6
3 2 3 2 5 4 3 4 10 9 13 10 12 3 3 13 10 9 10 10 8 7 3 2 4 4 5 4 6 6 7 5 4 6 7 6 7 6 5 5 5 5 5 6
4 3 2 2 9 9 2 2 10 9 11 12 12 5 4 14 11 10 9 8 8 6 4 4 3 3 4 4 6 7 5 5 5 5 6 6 6 5 3 4 5 5 6 6
3 2 4 5 11 6 5 5 10 6 5 8 5 2 10 10 8 7 7 9 7 7 6 5 4 4 5 5 6 5 5 5 5 5 6 5 4 4 4 3 5 4 4 4
2 4 3 12 3 6 2 3 3 4 4 5 6 8 6 6 7 7 8 9 8 6 6 6 6 4 5 6 5 5 5 6 5 4 4 4 6 4 5 3 4 4 3 2
2 1 3 1 4 1 2 4 4 5 5 6 6 5 8 6 7 7 7 6 5 5 4 6 6 4 5 3 3 4 5 5 4 3 3 4 5 5 4 4 4 4 4 4
2 1 2 3 2 2 2 4 5 4 4 5 6 7 7 7 7 6 6 6 5 5 5 5 5 5 4 4 3 3 4 4 3 3 3 3 3 3 3 3 3 4 3 3
1 2 3 3 4 5 6 3 4 4 4 4 6 6 5 6 8 6 6 7 5 5 4 5 4 4 3 3 2 3 4 3 3 3 3 3 2 2 2 1 3 4 3 3
3 2 0 0 1 3 4 5 5 5 4 6 7 7 6 4 5 6 6 6 6 6 6 5 4 4 3 3 2 1 2 2 2 3 3 3 2 1 3 5 8 8 8 6
3 2 2 3 2 1 2 3 4 3 4 4 5 5 4 4 5 6 5 6 6 6 6 5 5 5 4 2 0 1 1 1 1 2 3 4 3 3 4 1 0 3 4 8
3 3 3 4 4 1 2 3 3 2 2 2 3 3 4 4 5 5 5 6 6 4 6 5 6 7 6 4 3 3 3 3 2 2 2 2 2 2 2 2 2 1 3 4
4 3 2 1 2 2 3 3 1 1 2 3 3 3 3 6 6 7 6 6 7 4 4 4 4 8 4 3 3 4 2 3 3 2 3 3 3 3 3 3 3 3 1 1
5 2 2 1 3 3 2 2 1 3 3 3 4 3 5 5 7 7 6 4 4 7 9 8 8 6 4 3 4 3 4 5 3 3 2 2 2 2 2 2 3 3 2 2
6 1 1 4 6 4 6 3 3 4 4 5 5 5 6 7 7 4 5 4 5 8 8 8 11 7 4 4 4 3 2 3 4 2 3 3 3 4 3 3 3 3 3 3
4 3 2 4 6 4 4 4 5 5 5 4 5 4 6 5 7 10 10 6 8 9 7 8 6 5 4 3 2 2 3 3 2 4 3 3 4 3 3 3 4 5 4 3
3 4 3 4 4 4 4 5 5 5 5 4 3 6 5 8 7 7 6 6 8 7 8 3 5 1 5 5 3 1 1 1 1 2 3 3 2 3 4 5 5 5 4 4
1 2 3 3 1 4 6 6 5 6 5 3 3 6 8 8 6 7 3 7 9 9 6 7 4 5 5 5 2 3 4 4 4 4 3 4 4 5 5 6 6 6 5 6
5 3 3 4 5 5 7 5 3 7 4 3 5 7 8 11 7 5 5 6 7 6 7 6 4 5 3 4 4 4 4 5 5 6 5 6 5 6 6 6 6 6 6 6
3 3 5 4 4 6 4 3 4 6 7 6 6 7 6 10 8 6 9 12 6 4 3 4 4 7 6 8 4 5 5 5 6 4 5 5 6 6 7 6 6 6 6 6
5 4 3 3 4 5 6 6 5 5 7 6 7 7 6 8 7 7 11 4 5 5 5 6 9 12 12 7 6 6 6 7 7 6 7 6 7 6 6 6 6 6 6 6
3 4 4 1 1 3 7 4 5 6 7 7 8 7 7 8 8 7 9 12 12 10 8 9 9 13 12 6 6 6 7 7 7 6 6 8 6 6 6 6 6 5 6 6
4 2 1 1 3 4 5 4 6 6 6 7 8 8 9 7 7 7 7 8 12 11 8 10 13 12 7 6 7 7 7 6 6 6 6 6 6 6 6 5 5 5 5 5
3 3 3 5 5 3 3 2 4 6 6 9 8 7 6 6 7 8 8 10 9 10 8 7 6 6 6 6 6 6 6 6 6 6 6 6 5 5 5 5 5 5 4 4
1 1 2 3 1 0 2 3 3 8 5 7 10 8 7 7 7 8 9 8 8 8 7 7 6 7 6 6 6 6 6 5 7 5 4 4 4 4 4 4 3 3 3 3
Wind_Direction
293 295 170 13 357 34 70 14 70 49 106 339 348 344 343 348 351 356 358 2 358 346 340 353 17 355 13 74 54 51 83 92 110 113 112 115 114 117 121 129 132 138 136 143
271 210 80 42 19 38 42 22 41 35 44 1 322 343 11 6 352 354 351 344 344 333 340 4 33 42 354 43 61 78 70 78 76 86 97 104 110 112 110 112 116 124 137 148
273 209 272 32 5 26 49 27 354 35 323 324 329 342 8 2 355 345 336 332 329 325 305 22 45 54 53 24 50 81 85 74 78 87 83 78 96 106 113 123 128 131 139 150
280 332 49 113 322 119 90 47 25 1 343 345 336 270 161 18 358 339 335 332 331 327 321 67 76 74 70 55 64 73 81 85 87 90 98 97 94 98 103 117 130 140 146 154
316 12 147 110 20 341 357 53 18 358 352 344 341 167 188 19 1 340 334 329 327 327 3 54 79 91 85 70 80 74 73 78 80 104 108 110 115 120 123 136 139 139 148 156
331 67 21 329 329 325 135 19 6 6 356 344 340 30 342 353 346 344 343 338 350 2 26 53 43 96 111 96 90 89 94 92 82 85 104 108 116 120 117 133 142 153 156 172
302 71 313 335 310 299 60 293 347 343 324 338 347 312 303 320 337 338 346 352 14 31 46 37 28 55 70 71 72 78 90 93 88 82 87 102 108 111 104 112 129 132 150 141
11 55 329 346 347 58 305 298 291 304 303 314 288 306 309 321 330 343 356 4 13 27 35 23 18 57 75 72 66 69 77 79 76 85 105 116 119 107 110 150 147 135 143 151
348 234 123 70 125 297 309 279 303 320 334 323 313 337 330 334 348 356 0 358 9 24 30 26 17 35 78 61 80 88 88 87 88 91 99 113 124 125 135 171 164 154 168 168
210 11 85 69 79 42 296 308 328 350 342 346 337 351 333 348 354 359 357 3 353 9 23 30 25 45 74 90 87 94 102 106 119 133 122 111 130 148 157 170 155 155 161 153
252 162 127 139 55 0 343 340 353 1 16 351 3 350 340 350 353 352 355 356 -0 360 10 8 9 23 30 68 93 115 123 143 149 141 142 131 123 150 165 221 176 163 179 161
228 132 180 356 30 357 337 348 3 6 353 14 19 4 345 346 351 350 353 353 3 359 356 341 344 332 336 360 7 110 130 156 158 143 143 144 157 138 234 195 197 187 175 177
180 143 235 295 196 30 305 329 355 12 11 352 2 357 343 343 353 346 352 356 355 333 320 322 325 316 304 275 263 163 268 221 161 162 168 167 178 165 166 142 172 208 213 194
141 148 219 205 206 318 285 297 337 314 323 13 356 349 340 338 325 337 344 320 302 294 310 321 318 300 292 286 228 231 200 215 202 183 183 187 183 179 166 167 169 196 18 80
195 204 307 83 47 354 345 354 23 323 321 333 335 330 347 339 325 312 309 319 315 319 306 315 307 292 303 279 238 243 234 230 209 215 205 198 183 185 186 183 195 200 250 328
143 78 24 207 269 281 293 295 216 285 317 301 300 311 309 284 288 292 299 310 11 316 308 307 294 266 282 266 224 228 229 231 214 213 208 211 231 234 231 241 256 250 234 226
121 236 222 270 217 221 221 222 223 248 283 282 278 297 313 311 290 289 282 265 257 270 266 267 271 285 282 271 235 238 208 219 199 179 212 209 208 215 220 217 224 229 231 202
133 133 164 170 172 204 269 243 238 252 242 243 294 318 308 316 293 299 302 317 303 296 264 259 260 285 305 299 246 217 193 201 187 204 209 210 224 221 221 235 244 247 253 258
182 192 202 207 202 207 243 251 241 238 272 267 309 287 261 270 269 273 292 305 295 297 286 284 273 305 282 267 222 172 156 177 217 240 216 226 227 227 223 224 232 233 239 243
219 223 229 240 214 199 256 244 251 273 262 260 261 283 291 284 265 287 281 269 255 249 272 275 265 262 252 245 210 183 195 212 222 232 216 223 225 234 228 229 234 237 231 232
230 226 246 243 262 253 240 244 253 279 281 222 241 266 270 288 279 263 297 285 277 239 250 262 243 260 236 237 213 211 216 226 222 228 222 226 225 229 228 226 225 226 232 228
208 213 240 245 254 285 273 267 229 267 272 270 252 259 275 285 282 250 222 244 282 265 257 266 256 250 249 251 232 234 232 228 233 219 228 221 224 235 234 227 229 230 229 228
203 210 233 242 252 280 299 273 258 239 270 273 280 282 262 272 278 291 302 247 243 258 257 261 266 267 262 247 236 235 233 230 232 227 229 225 224 225 230 226 223 219 221 225
214 212 234 233 353 343 317 281 279 276 261 277 265 257 269 295 288 230 243 270 274 277 273 272 270 272 272 261 247 235 234 233 234 234 232 227 226 226 229 230 230 226 229 223
213 244 200 322 313 271 265 287 314 291 297 284 276 270 251 229 232 282 291 287 285 285 278 274 275 277 270 257 249 245 241 234 230 228 225 225 227 224 224 223 223 223 219 216
181 232 232 220 239 266 296 357 291 297 300 307 302 294 289 282 273 275 281 283 282 282 277 278 272 264 252 249 248 248 247 246 242 237 233 228 224 220 220 219 219 217 218 218
308 239 315 310 315 7 264 261 295 301 289 286 287 296 292 295 287 282 279 282 281 281 279 277 270 266 261 256 251 246 241 239 233 233 227 232 229 224 219 218 216 209 203 205